User: anonymous   Login
Location: Cincinnati Observatory Center
(39.1389°N, 84.4225°W)
Time: 08:16:30
(UTC-05:00)
Language:

Hubble Space Telescope - Orbit

View from above orbital plane
View from above orbital plane
View from above satellite
View from above satellite

Ground track
Ground track

The orbit data is extracted from the following two-line orbital elements,

1 20580U 90037B   17020.90391759  .00000534  00000-0  22051-4 0  9993
2 20580  28.4693 260.6559 0002807  32.3917  81.4017 15.08649783268013
Epoch (UTC): 20 January 2017 21:41:38
Eccentricity: 0.0002807
inclination: 28.4693°
perigee height: 538 km
apogee height: 542 km
right ascension of ascending node: 260.6559°
argument of perigee: 32.3917°
revolutions per day: 15.08649783
mean anomaly at epoch: 81.4017°
orbit number at epoch: 26801

The dashed part of the orbit path shows where the satellite is in the earth's shadow,  

DLR